User: anonymous
Location: Mount Kobau Star Party
(49.1167°N, 119.7333°W)
Time: 18:44:50
(UTC-07:00)
Language:

TSX-5 - Orbit

View from above orbital plane
View from above orbital plane
View from above satellite
View from above satellite

Ground track
Ground track

The orbit data is extracted from the following two-line orbital elements,

1 26374U 00030A   14261.48824723  .00010219  00000-0  89826-3 0  3967
2 26374 068.9344 290.3466 0699139 326.9896 129.6014 13.93610039715638
Epoch (UTC): 18 September 2014 11:43:04
Eccentricity: 0.0699139
inclination: 68.9344°
perigee height: 406 km
apogee height: 1426 km
right ascension of ascending node: 290.3466°
argument of perigee: 326.9896°
revolutions per day: 13.93610039
mean anomaly at epoch: 129.6014°
orbit number at epoch: 71563

The dashed part of the orbit path shows where the satellite is in the earth's shadow,  

DLR